This demonstration page uses our WeatherBlox Daily Observations layout. Learn more.

Left ArrowRight Arrow

Hourly Observations for June 21, 2021

Temp ( °F °C ) Dew Point ( °F °C ) Humidity (%) Winds ( mph kmh ) Pressure ( in mb ) Visibility ( mi km ) Precip ( " mm )
12:15 am 00:15 Clear 66 18.7 53 11.4 63 63 NNW 8 13 29.91 1013 10 16 N/A
12:35 am 00:35 Clear 64 17.7 54 12.4 71 71 N 6 9 29.88 1012 10 16 N/A
12:55 am 00:55 Clear 64 18 54 12.1 69 69 NNW 5 7 29.90 1013 10 16 N/A
1:15 am 01:15 Partly Cloudy 65 18.1 54 12 68 68 NNW 8 13 29.91 1013 10 16 N/A
1:35 am 01:35 Cloudy with Light Rain 64 18 53 11.6 66 66 N 7 11 29.91 1013 10 16 N/A
1:55 am 01:55 Partly Cloudy with Drizzle 64 17.8 52 11.3 66 66 N 7 11 29.90 1012 10 16 N/A
2:15 am 02:15 Clear 62 16.9 52 11.3 70 70 NNW 3 6 29.91 1013 10 16 N/A
2:35 am 02:35 Partly Cloudy 63 17.2 52 11.2 68 68 NW 7 11 29.95 1014 10 16 N/A
2:55 am 02:55 Mostly Cloudy 63 17.2 52 11.3 68 68 NW 6 9 29.96 1015 10 16 N/A
3:15 am 03:15 Mostly Cloudy 63 17 53 11.6 71 71 NW 5 7 29.95 1014 10 16 N/A
3:35 am 03:35 Cloudy 63 17.3 52 11.2 68 68 NW 6 9 29.95 1014 10 16 N/A
3:55 am 03:55 Cloudy with Light Rain 62 16.9 53 11.8 72 72 WNW 5 7 29.97 1015 10 16 N/A
4:15 am 04:15 Cloudy with Light Rain 62 16.4 54 12.2 76 76 WNW 6 9 30.02 1016 10 16 N/A
4:35 am 04:35 Cloudy 60 15.8 55 12.8 82 82 NNW 5 7 30.01 1016 10 16 N/A
4:55 am 04:55 Mostly Cloudy 61 16.1 54 12.3 78 78 NNW 3 6 30.00 1016 10 16 N/A
5:15 am 05:15 Partly Cloudy 61 15.9 54 12.4 80 80 NW 3 6 30.01 1016 10 16 N/A
5:35 am 05:35 Partly Cloudy 60 15.6 55 12.5 82 82 NNW 7 11 30.01 1016 10 16 N/A
5:55 am 05:55 Clear 60 15.6 54 12.4 81 81 NNW 5 7 30.03 1017 10 16 N/A
6:15 am 06:15 Sunny 60 15.5 55 12.6 83 83 NNW 3 6 30.03 1017 10 16 N/A
6:35 am 06:35 Sunny 60 15.3 55 12.8 85 85 N N/A 30.05 1017 10 16 N/A
6:55 am 06:55 Mostly Cloudy 60 15.3 55 13 86 86 NNW 5 7 30.05 1017 10 16 N/A
7:15 am 07:15 Cloudy 60 15.6 55 12.7 83 83 NW 3 6 30.04 1017 10 16 N/A
7:35 am 07:35 Partly Cloudy 60 15.6 55 12.7 83 83 NW 5 7 30.05 1018 10 16 N/A
7:55 am 07:55 Sunny 62 16.7 55 12.9 78 78 NNW 5 7 30.03 1017 10 16 N/A
8:15 am 08:15 Sunny 64 17.5 54 12.3 72 72 NNW 8 13 30.04 1017 10 16 N/A
8:35 am 08:35 Sunny 64 18 54 12 68 68 N 7 11 30.04 1017 10 16 N/A
8:55 am 08:55 Sunny 65 18.5 53 11.7 65 65 NNW 6 9 30.04 1017 10 16 N/A
9:15 am 09:15 Sunny 66 19.1 53 11.7 62 62 N 6 9 30.04 1017 10 16 N/A
9:35 am 09:35 Sunny 66 19.1 52 11 60 60 NE 5 7 30.04 1017 10 16 N/A
9:55 am 09:55 Sunny 67 19.6 53 11.4 59 59 N 5 7 30.05 1018 10 16 N/A
10:15 am 10:15 Sunny 68 20 52 11.2 57 57 N N/A 30.05 1017 10 16 N/A
10:35 am 10:35 Sunny 69 20.3 51 10.7 54 54 N N/A 30.03 1017 10 16 N/A
10:55 am 10:55 Partly Cloudy 69 20.6 51 10.7 53 53 NNW 5 7 30.04 1017 10 16 N/A
11:15 am 11:15 Partly Cloudy 70 21 50 10 50 50 WNW 6 9 30.04 1017 10 16 N/A
11:35 am 11:35 Sunny 70 21.2 50 10.2 50 50 N 3 6 30.04 1017 10 16 N/A
11:55 am 11:55 Partly Cloudy 71 21.5 49 9.7 47 47 WNW 3 6 30.02 1017 10 16 N/A
12:15 pm 12:15 Partly Cloudy 72 22.1 51 10.6 48 48 W 5 7 30.02 1017 10 16 N/A
12:35 pm 12:35 Mostly Cloudy 72 22 49 9.7 46 46 WNW 3 6 30.02 1017 10 16 N/A
12:55 pm 12:55 Cloudy 71 21.5 48 9.1 45 45 N N/A 30.01 1016 10 16 N/A
1:15 pm 13:15 Cloudy 71 21.6 50 10.1 48 48 W 7 11 30.01 1016 10 16 N/A
1:35 pm 13:35 Mostly Cloudy 73 22.7 48 8.7 41 41 N N/A 29.99 1016 10 16 N/A
1:55 pm 13:55 Cloudy 73 23 50 9.8 43 43 NNW 3 6 29.98 1015 10 16 N/A
2:15 pm 14:15 Cloudy 73 22.5 48 8.9 42 42 NNW 5 7 29.99 1015 10 16 N/A
2:35 pm 14:35 Mostly Cloudy 74 23.6 47 8.5 38 38 NW 9 15 29.97 1015 10 16 N/A
2:55 pm 14:55 Mostly Cloudy 75 24 49 9.2 39 39 NW 7 11 29.96 1015 10 16 N/A
3:15 pm 15:15 Cloudy 74 23.6 48 8.8 39 39 NW 6 9 29.97 1015 10 16 N/A
3:35 pm 15:35 Cloudy 75 24.1 47 8.2 36 36 WNW 9 15 29.96 1015 10 16 N/A
3:55 pm 15:55 Mostly Cloudy 74 23.6 48 8.9 39 39 W 13 20 29.96 1014 10 16 N/A
4:15 pm 16:15 Cloudy 73 23 47 8.5 40 40 W 12 19 29.96 1015 10 16 N/A
4:35 pm 16:35 Partly Cloudy 76 24.2 45 7.1 33 33 WNW 14 22 29.94 1014 10 16 N/A
4:55 pm 16:55 Sunny 75 24.1 47 8.4 37 37 W 14 22 29.93 1014 10 16 N/A
5:15 pm 17:15 Sunny 76 24.6 47 8.5 36 36 W 13 20 29.92 1013 10 16 N/A
5:35 pm 17:35 Sunny 77 24.8 46 7.5 33 33 NW 15 24 29.92 1013 10 16 N/A
5:55 pm 17:55 Sunny 77 25 45 7 32 32 WNW 12 19 29.91 1013 10 16 N/A
6:15 pm 18:15 Sunny 77 25.1 46 7.6 33 33 NNW 10 17 29.90 1012 10 16 N/A
6:35 pm 18:35 Partly Cloudy 77 24.8 46 7.6 33 33 NW 9 15 29.90 1012 10 16 N/A
6:55 pm 18:55 Partly Cloudy 76 24.3 46 7.7 35 35 NW 8 13 29.89 1012 10 16 N/A
7:15 pm 19:15 Partly Cloudy 76 24.4 47 8.1 35 35 NW 3 6 29.89 1012 10 16 N/A
7:35 pm 19:35 Partly Cloudy 76 24.5 46 7.9 35 35 WNW 5 7 29.89 1012 10 16 N/A
7:55 pm 19:55 Sunny 75 24 48 8.7 38 38 WNW 3 6 29.89 1012 10 16 N/A
8:15 pm 20:15 Sunny 75 23.7 50 10 42 42 N N/A 29.90 1012 10 16 N/A
8:35 pm 20:35 Sunny 73 23 50 10.1 44 44 N N/A 29.90 1013 10 16 N/A
8:55 pm 20:55 Sunny 73 22.6 50 10.1 45 45 N N/A 29.91 1013 10 16 N/A
9:15 pm 21:15 Clear 72 22 52 11 50 50 N N/A 29.91 1013 10 16 N/A
9:35 pm 21:35 Clear 70 21 53 11.6 55 55 N N/A 29.92 1013 10 16 N/A
9:55 pm 21:55 Clear 69 20.4 53 11.4 56 56 SSW 6 9 29.93 1014 10 16 N/A
10:15 pm 22:15 Clear 68 19.8 54 12 61 61 SSW 6 9 29.94 1014 10 16 N/A
10:35 pm 22:35 Clear 66 18.9 54 12.2 65 65 SSW 3 6 29.96 1014 10 16 N/A
10:55 pm 22:55 Clear 66 19 54 12.4 66 66 SSW 5 7 29.95 1014 10 16 N/A
11:15 pm 23:15 Clear 65 18.2 55 12.7 70 70 SSW 3 6 29.95 1014 10 16 N/A
11:35 pm 23:35 Clear 64 18 54 12.4 70 70 SSW 5 7 29.95 1014 10 16 N/A
11:55 pm 23:55 Clear 64 17.8 54 12.2 70 70 N N/A 29.96 1014 10 16 N/A

Powered by AerisWeather